Location: Ash Shall?l al Awwal
(24.0167°N, 32.8667°E)
Time: 04:42:54
(UTC+00:00)

CENTAUR R/B - Pass Details

Date: 02 March 2021
Orbit: 742 x 1446 km, 63.4° (Epoch: 31 March)

Event Time Altitude Azimuth Distance (km) Brightness Sun altitude
Rises 17:41:48 0° 187° (S) 3,195 5.3 -25.9°
Reaches altitude 10° 17:44:11 10° 180° (S) 2,311 4.4 -26.4°
Enters shadow 17:44:33 12° 178° (S) 2,186 4.3 -26.5°
